User: anonymous   Login
Location: Saint-Restitut
(44.3351°N, 4.7915°E)
Time: 20:21:20
(UTC+00:00)
Language:

FENGYUN 1C DEB - Orbit

View from above orbital plane
View from above orbital plane
View from above satellite
View from above satellite

Ground track
Ground track

The orbit data is extracted from the following two-line orbital elements,

1 30439U 99025AFA 24057.02357758  .00000391  00000-0  25632-3 0  9993
2 30439  98.7892  81.3122 0040613  29.1611  25.0990 14.07345190875633
Epoch (UTC): 26 February 2024 00:33:57
Eccentricity: 0.0040613
inclination: 98.7892°
perigee height: 839 km
apogee height: 898 km
right ascension of ascending node: 81.3122°
argument of perigee: 29.1611°
revolutions per day: 14.07345190
mean anomaly at epoch: 25.0990°
orbit number at epoch: 87563

The dashed part of the orbit path shows where the satellite is in the earth's shadow,  

DLR